Location: ????????
(54.6123°N, 39.2099°E)
Time: 07:55:44
(UTC+00:00)

USA 281 - Pass Details

Date: 19 May 2025
Orbit: 1078 x 1081 km, 106.0° (Epoch: 28 April)

Event Time Altitude Azimuth Distance (km) Brightness Sun altitude
Rises 23:43:54 0° 29° (NNE) 3,889 8.5 -9.3°
Reaches altitude 10° 23:46:28 10° 33° (NNE) 2,930 7.2 -9.1°
Maximum altitude 23:53:00 62° 114° (ESE) 1,202 3.6 -8.5°
Drops below altitude 10° 23:59:29 10° 195° (SSW) 2,914 4.9 -8.0°
Enters shadow 00:00:13 - 196° (SSW) 3,189 5.1 -7.9°
